Location: Bad Salzschlirf
(50.3750°N, 9.3000°E)
Time: 03:22:48
(UTC+02:00)

ISS - Pass Details

Date: 06 July 2025
Orbit: 413 x 417 km, 51.6° (Epoch: 12 July)

Event Time Altitude Azimuth Distance (km) Brightness Sun altitude
Exits shadow 01:15:24 13° 250° (WSW) 1,346 -1.4 -16.9°
Maximum altitude 01:18:23 82° 165° (SSE) 425 -3.9 -16.9°
Drops below altitude 10° 01:21:45 10° 76° (ENE) 1,495 -0.8 -16.9°
Sets 01:23:51 0° 75° (ENE) 2,361 0.2 -16.9°
